Simultaneous Nadir Overpasses (SNOs) Predictions

Prediction of SNOs between METOP-A and NOAA-19 Satellite Orbit:

Table of predicted SNOs for the next 14.0 days since TLE Epoch: 10/20/2017
Index Date (METOP-A) Time (METOP-A) Lat,Lon (METOP-A) SZA (METOP-A ) Date (NOAA-19) Time (NOAA-19) Lat,Lon (NOAA-19) SZA (NOAA-19 ) Distance(km) Time Diff (sec)
1 10/26/2017 20:31:14 77.76,-121.74 90.60 10/26/2017 20:30:08 77.76,-121.61 90.59 3.10 66
2 10/26/2017 21:21:55 -77.76, 45.62 89.39 10/26/2017 21:21:08 -77.75, 45.71 89.41 2.63 47
3 10/26/2017 22:12:36 77.74,-147.18 90.60 10/26/2017 22:12:09 77.74,-147.02 90.60 3.81 27
4 10/26/2017 23:03:17 -77.74, 20.18 89.39 10/26/2017 23:03:09 -77.73, 20.29 89.40 2.84 8
5 10/26/2017 23:53:57 77.76,-172.42 90.64 10/26/2017 23:54:10 77.73,-172.43 90.61 3.59 13
6 10/27/2017 00:44:39 -77.72, -5.26 89.39 10/27/2017 00:45:10 -77.72, -5.13 89.39 3.20 31
7 10/27/2017 01:35:19 77.74, 162.14 90.64 10/27/2017 01:36:11 77.71, 162.16 90.62 3.19 52
8 10/27/2017 02:26:01 -77.70, -30.70 89.39 10/27/2017 02:27:11 -77.70, -30.54 89.38 3.65 70




NCC Satellite Simultaneous Nadir Overpasses (SNOs) Prediction Service
